STARLINK-4760 (53828 NORAD) Tracking and Keplerian Element Data

This shows tracking and keplerian element data for the satellite.

Feedback or suggestion? Click here.




ElementValue
Catalog53828
NameSTARLINK-4760
Epoch Orbit1047
Epoch Day325.33334491
Epoch Year2022
RAAN310.6542
Inclination53.2172
Eccentricity0.0001689
Argument of Perigee39.3433
Mean Anonmoly4.47
Mean Motion15.15749294
Decay Rate-0.01157571
L11 53828U 22114L 22325.33334491 -.01157571 00000+0 -65138-1 0 9992
L22 53828 53.2172 310.6542 0001689 39.3433 4.4700 15.15749294 10472



Live tracking and technical data element details for STARLINK-4760 (NORAD 53828). STARLINK-4760 can be tracked NOW for your location showing map with azimuth and elevation plus other details from your city location.







IsCatalogInMostPopularTable: catalog: 53828, numindb: 1
Update: records affected: 1



GetName: 53828 STARLINK-4760

Hit Count: updated at: Thu, 08 Dec 2022 09:56:25 GMT